Date String (YYYY-MM-DD hh:mm:ss) UTC,Instrument flags,absolute air pressure of the measurement (hPa),sample flow rate (lpm),inlet stack bypass flow (lpm),air temperature of the measurement (°C),ambient temperature measured by the external sensor (°C),aerosol sample conditioner tube jacket temperature (°C),OPC LED temperature (°C),internal box temperature (°C),relative humidity of the measurement (%),span deviation,mass concentration of particles derived from Lorenz-Mie calculation of OPC scattering (μg/m³),mass concentration of particles derived from Lorenz-Mie calculation of OPC scattering (μg/m³),mass concentration of particles derived from Lorenz-Mie calculation of OPC scattering (μg/m³)
DateTimeUTC,F1_M11,P_M11,Q1_M11,Q2_M11,T1_M11,T2_M11,T3_M11,T4_M11,T5_M11,U1_M11,ZSPAN_M11,X0_M11,X2_M11,X1_M11
2023-11-22 05:00:00,SystemResetWarning,0837.2,5.00,000.00,022.8,021.9,000.0,031.3,024.0,10.4,0000.0,0002.16,0000.84,0000.70
2023-11-22 05:01:00,SystemResetWarning,0837.2,5.00,000.00,022.8,021.9,000.0,031.2,024.0,10.4,0000.0,0002.17,0000.85,0000.70
2023-11-22 05:02:00,SystemResetWarning,0837.2,5.00,000.00,022.8,021.9,000.0,031.2,024.0,10.4,0000.0,0002.17,0000.85,0000.72
2023-11-22 05:03:00,SystemResetWarning,0837.1,5.01,000.00,022.8,021.9,000.0,031.2,024.0,10.4,0000.0,0002.28,0000.86,0000.72
2023-11-22 05:04:00,SystemResetWarning,0837.1,5.00,000.00,022.8,021.8,000.0,031.2,024.0,10.3,0000.0,0001.61,0000.83,0000.72
2023-11-22 05:05:00,SystemResetWarning,0837.1,5.00,000.00,022.8,021.8,000.0,031.2,024.0,10.3,0000.0,0002.16,0000.84,0000.72
2023-11-22 05:06:00,SystemResetWarning,0837.1,4.99,000.00,022.8,021.8,000.0,031.2,023.9,10.3,0000.0,0002.23,0000.88,0000.72
2023-11-22 05:07:00,SystemResetWarning,0837.1,4.99,000.00,022.7,021.8,000.0,031.2,023.9,10.3,0000.0,0002.32,0000.90,0000.72
2023-11-22 05:08:00,SystemResetWarning,0837.0,4.99,000.00,022.7,021.8,000.0,031.2,023.9,10.3,0000.0,0002.28,0000.89,0000.74
2023-11-22 05:09:00,SystemResetWarning,0837.0,5.01,000.00,022.7,021.8,000.0,031.2,023.9,10.3,0000.0,0002.28,0000.90,0000.75
2023-11-22 05:10:00,SystemResetWarning,0837.0,5.01,000.00,022.7,021.8,000.0,031.2,023.9,10.3,0000.0,0003.34,0000.93,0000.75
2023-11-22 05:11:00,SystemResetWarning,0837.0,5.00,000.00,022.7,021.8,000.0,031.2,023.9,10.3,0000.0,0003.55,0000.94,0000.75
2023-11-22 05:12:00,SystemResetWarning,0836.9,5.01,000.00,022.7,021.7,000.0,031.1,023.9,10.4,0000.0,0003.75,0000.97,0000.76
2023-11-22 05:13:00,SystemResetWarning,0836.9,5.01,000.00,022.7,021.7,000.0,031.1,023.8,10.4,0000.0,0003.88,0000.98,0000.76
2023-11-22 05:14:00,SystemResetWarning,0836.9,5.00,000.00,022.7,021.7,000.0,031.1,023.8,10.4,0000.0,0003.88,0001.01,0000.78
2023-11-22 05:15:00,SystemResetWarning,0836.9,4.99,000.00,022.7,021.7,000.0,031.1,023.8,10.4,0000.0,0004.09,0001.05,0000.78
2023-11-22 05:16:00,SystemResetWarning,0836.9,4.99,000.00,022.7,021.7,000.0,031.1,023.8,10.4,0000.0,0003.35,0001.05,0000.79
2023-11-22 05:17:00,SystemResetWarning,0837.0,5.00,000.00,022.6,021.7,000.0,031.1,023.8,10.4,0000.0,0004.21,0001.04,0000.79
2023-11-22 05:18:00,SystemResetWarning,0837.0,5.01,000.00,022.6,021.7,000.0,031.1,023.8,10.4,0000.0,0004.54,0001.04,0000.80
2023-11-22 05:19:00,SystemResetWarning,0837.0,5.00,000.00,022.6,021.7,000.0,031.1,023.8,10.4,0000.0,0004.79,0001.07,0000.80
2023-11-22 05:20:00,SystemResetWarning,0836.9,5.00,000.00,022.6,021.7,000.0,031.1,023.8,10.4,0000.0,0004.98,0001.09,0000.79
2023-11-22 05:21:00,SystemResetWarning,0836.9,5.00,000.00,022.6,021.7,000.0,031.1,023.7,10.4,0000.0,0003.96,0001.06,0000.79
2023-11-22 05:22:00,SystemResetWarning,0836.8,5.00,000.00,022.6,021.7,000.0,031.0,023.7,10.4,0000.0,0004.44,0001.05,0000.80
2023-11-22 05:23:00,SystemResetWarning,0836.8,5.00,000.00,022.6,021.7,000.0,031.0,023.7,10.5,0000.0,0004.59,0001.02,0000.79
2023-11-22 05:24:00,SystemResetWarning,0836.8,5.00,000.00,022.6,021.7,000.0,031.0,023.8,10.5,0000.0,0004.44,0001.00,0000.79
2023-11-22 05:25:00,SystemResetWarning,0836.8,5.00,000.00,022.6,021.7,000.0,031.0,023.7,10.5,0000.0,0004.37,0000.98,0000.78
2023-11-22 05:26:00,SystemResetWarning,0836.8,5.01,000.00,022.6,021.6,000.0,031.0,023.8,10.5,0000.0,0004.11,0000.94,0000.77
2023-11-22 05:27:00,SystemResetWarning,0836.8,5.00,000.00,022.6,021.6,000.0,031.0,023.8,10.5,0000.0,0004.07,0000.93,0000.76
2023-11-22 05:28:00,SystemResetWarning,0836.8,4.99,000.00,022.6,021.6,000.0,031.0,023.7,10.5,0000.0,0003.24,0000.92,0000.75
2023-11-22 05:29:00,SystemResetWarning,0836.8,4.99,000.00,022.6,021.6,000.0,031.0,023.7,10.5,0000.0,0002.76,0000.89,0000.74
2023-11-22 05:30:00,SystemResetWarning,0836.8,5.00,000.00,022.6,021.6,000.0,031.0,023.7,10.5,0000.0,0002.42,0000.84,0000.73
2023-11-22 05:31:00,SystemResetWarning,0836.8,5.01,000.00,022.5,021.6,000.0,031.0,023.7,10.4,0000.0,0002.23,0000.81,0000.72
2023-11-22 05:32:00,SystemResetWarning,0836.8,5.00,000.00,022.5,021.6,000.0,031.0,023.7,10.4,0000.0,0002.27,0000.83,0000.71
2023-11-22 05:33:00,SystemResetWarning,0836.8,5.01,000.00,022.5,021.6,000.0,030.9,023.6,10.5,0000.0,0001.62,0000.82,0000.69
2023-11-22 05:34:00,SystemResetWarning,0836.7,5.00,000.00,022.5,021.5,000.0,030.9,023.6,10.5,0000.0,0001.16,0000.81,0000.68
2023-11-22 05:35:00,SystemResetWarning,0836.8,4.99,000.00,022.5,021.5,000.0,030.9,023.6,10.5,0000.0,0001.42,0000.81,0000.67
2023-11-22 05:36:00,SystemResetWarning,0836.8,5.00,000.00,022.5,021.5,000.0,030.9,023.7,10.5,0000.0,0001.44,0000.78,0000.66
2023-11-22 05:37:00,SystemResetWarning,0836.7,5.00,000.00,022.5,021.5,000.0,030.9,023.6,10.5,0000.0,0001.41,0000.77,0000.65
2023-11-22 05:38:00,SystemResetWarning,0836.7,5.00,000.00,022.5,021.5,000.0,030.9,023.6,10.5,0000.0,0001.33,0000.75,0000.64
2023-11-22 05:39:00,SystemResetWarning,0836.6,5.00,000.00,022.4,021.5,000.0,030.9,023.6,10.5,0000.0,0001.27,0000.73,0000.64
2023-11-22 05:40:00,SystemResetWarning,0836.6,5.01,000.00,022.4,021.5,000.0,030.9,023.6,10.5,0000.0,0001.28,0000.74,0000.64
2023-11-22 05:41:00,SystemResetWarning,0836.6,5.01,000.00,022.4,021.5,000.0,030.9,023.6,10.5,0000.0,0001.30,0000.74,0000.64
2023-11-22 05:42:00,SystemResetWarning,0836.6,5.00,000.00,022.4,021.5,000.0,030.9,023.7,10.5,0000.0,0001.28,0000.73,0000.62
2023-11-22 05:43:00,SystemResetWarning,0836.6,5.00,000.00,022.4,021.5,000.0,030.8,023.6,10.5,0000.0,0001.20,0000.70,0000.63
2023-11-22 05:44:00,SystemResetWarning,0836.6,5.00,000.00,022.4,021.5,000.0,030.8,023.6,10.4,0000.0,0001.20,0000.70,0000.64
2023-11-22 05:45:00,SystemResetWarning,0836.6,4.99,000.00,022.4,021.5,000.0,030.8,023.6,10.5,0000.0,0001.18,0000.69,0000.64
2023-11-22 05:46:00,SystemResetWarning,0836.6,5.00,000.00,022.4,021.5,000.0,030.8,023.6,10.4,0000.0,0000.91,0000.69,0000.64
2023-11-22 05:47:00,SystemResetWarning,0836.6,5.00,000.00,022.4,021.5,000.0,030.8,023.6,10.4,0000.0,0000.89,0000.70,0000.64
2023-11-22 05:48:00,SystemResetWarning,0836.6,5.00,000.00,022.4,021.5,000.0,030.8,023.6,10.4,0000.0,0000.88,0000.70,0000.63
2023-11-22 05:49:00,SystemResetWarning,0836.7,5.00,000.00,022.4,021.5,000.0,030.8,023.5,10.4,0000.0,0000.88,0000.70,0000.63
2023-11-22 05:50:00,SystemResetWarning,0836.6,5.00,000.00,022.4,021.5,000.0,030.8,023.5,10.4,0000.0,0000.88,0000.69,0000.62
2023-11-22 05:51:00,SystemResetWarning,0836.5,5.00,000.00,022.4,021.5,000.0,030.8,023.5,10.4,0000.0,0000.89,0000.69,0000.62
2023-11-22 05:52:00,SystemResetWarning,0836.5,5.01,000.00,022.4,021.5,000.0,030.8,023.5,10.5,0000.0,0000.90,0000.70,0000.62
2023-11-22 05:53:00,SystemResetWarning,0836.5,5.00,000.00,022.4,021.5,000.0,030.8,023.6,10.5,0000.0,0000.90,0000.70,0000.63
2023-11-22 05:54:00,SystemResetWarning,0836.5,5.00,000.00,022.4,021.5,000.0,030.8,023.6,10.5,0000.0,0000.91,0000.70,0000.63
2023-11-22 05:55:00,SystemResetWarning,0836.5,5.00,000.00,022.4,021.5,000.0,030.7,023.6,10.5,0000.0,0000.91,0000.70,0000.61
2023-11-22 05:56:00,SystemResetWarning,0836.5,5.00,000.00,022.3,021.5,000.0,030.7,023.5,10.4,0000.0,0000.92,0000.72,0000.61
2023-11-22 05:57:00,SystemResetWarning,0836.4,5.00,000.00,022.3,021.4,000.0,030.7,023.5,10.3,0000.0,0000.92,0000.71,0000.62
2023-11-22 05:58:00,SystemResetWarning,0836.4,5.00,000.00,022.3,021.4,000.0,030.7,023.5,10.3,0000.0,0000.92,0000.72,0000.62
2023-11-22 05:59:00,SystemResetWarning,0836.4,5.00,000.00,022.3,021.4,000.0,030.7,023.5,10.3,0000.0,0001.01,0000.76,0000.63
